Location: Christian Reformed Church
(43.0975°N, 93.8113°W)
Time: 23:06:59
(UTC+00:00)

Cosmos 2333 Rocket - Visible Passes

Search period start: 13 March 2026 00:00
Search period end: 23 March 2026 00:00
Orbit: 840 x 862 km, 70.8° (Epoch: 13 March)

Date Brightness Start Highest point End Pass type
(mag) Time Alt. Az. Time Alt. Az. Time Alt. Az.
13 Mar 4.6 08:47:07 14° N 08:47:07 14° N 08:48:09 10° N visible
14 Mar 4.7 08:35:00 13° N 08:35:00 13° N 08:35:54 10° N visible
15 Mar 4.8 08:22:53 13° N 08:22:53 13° N 08:23:40 10° N visible
16 Mar 4.8 08:10:44 13° N 08:10:44 13° N 08:11:25 10° N visible
17 Mar 4.9 07:58:33 12° N 07:58:33 12° N 07:59:10 10° N visible
18 Mar 4.9 07:46:22 12° N 07:46:22 12° N 07:46:55 10° N visible
19 Mar 5.0 07:34:09 12° N 07:34:09 12° N 07:34:40 10° N visible
20 Mar 5.0 07:21:54 12° N 07:21:54 12° N 07:22:25 10° N visible
21 Mar 5.0 07:09:38 12° N 07:09:38 12° N 07:10:10 10° N visible
22 Mar 5.0 06:57:20 12° N 06:57:20 12° N 06:57:55 10° N visible
